Weather History for HEAT - October, 2012

Change the Weather History Date:

Monday, October 29, 2012

  Actual Average Record
Temperature  
Mean Temperature 74 °F -  
Max Temperature 91 °F 77 °F - ()
Min Temperature 58 °F 51 °F - ()
Cooling Degree Days 10    
Growing Degree Days 24 (Base 50)    
Moisture  
Dew Point 51 °F    
Average Humidity 45    
Maximum Humidity 72    
Minimum Humidity 19    
Precipitation  
Precipitation 0.00 in 0.00 in - ()
Sea Level Pressure  
Sea Level Pressure 29.94 in    
Wind  
Wind Speed 5 mph ()    
Max Wind Speed 9 mph    
Max Gust Speed -    
Visibility 6.0 miles    
Events      
T = Trace of Precipitation, MM = Missing Value Source: Averaged Metar Reports

Daily Weather History Graph

Daily Weather History Graph

Search for Another Location

Airport or City:

Trip Planner

Search our weather history database for the weather conditions in past years. The results will help you decide how hot, cold, wet, or windy it might be!

Date:

Astronomy

Oct. 29, 2012 Rise Set
Actual Time 6:04 AM EET 5:14 PM EET
Civil Twilight 5:40 AM EET 5:38 PM EET
Nautical Twilight 5:12 AM EET 6:06 PM EET
Astronomical Twilight 4:45 AM EET 6:33 PM EET
Moon 4:57 PM EET (10/29) 5:34 AM EET (10/29)
Length of Visible Light 11h 58m
Length of Day
11h 10m
Full, 100% of the Moon is Illuminated
Oct 29
Full
Oct 29
Full
Nov 7
Last Quarter
Nov 14
New
Nov 20
First Quarter

Hourly Weather History & Observations

Time (EET) Temp. Heat Index Dew Point Humidity Pressure Visibility Wind Dir Wind Speed Gust Speed Precip Events Conditions
12:00 AM 69.8 °F - 51.8 °F 53% 29.98 in - NNW 4.6 mph - N/A   Clear
1:00 AM 68.0 °F - 50.0 °F 52% 29.98 in - NNW 5.8 mph - N/A   Clear
2:00 AM 65 °F - 51 °F 50% 29.96 in 6 mi NNW 3.5 mph - -  
2:00 AM 66.2 °F - 51.8 °F 60% 29.98 in - NNW 3.5 mph - N/A   Clear
3:00 AM 64.4 °F - 48.2 °F 56% 29.95 in - WNW 4.6 mph - N/A   Clear
4:00 AM 62.6 °F - 48.2 °F 59% 29.95 in - WNW 5.8 mph - N/A   Clear
5:00 AM 60.8 °F - 48.2 °F 63% 29.98 in - West 9.2 mph - N/A   Clear
6:00 AM 60.8 °F - 48.2 °F 63% 29.98 in - West 6.9 mph - N/A   Clear
7:00 AM 59.0 °F - 50.0 °F 72% 29.98 in - West 4.6 mph - N/A   Clear
8:00 AM 64 °F - 51 °F 52% 29.97 in 6 mi West 5.8 mph - -  
8:00 AM 64.4 °F - 50.0 °F 59% 29.98 in - West 5.8 mph - N/A   Clear
9:00 AM 69.8 °F - 51.8 °F 53% 29.98 in - NW 3.5 mph - N/A   Clear
10:00 AM 75.2 °F - 51.8 °F 44% 29.95 in - WSW 3.5 mph - N/A   Clear
11:00 AM 82.4 °F - 51.8 °F 35% 29.95 in - West 5.8 mph - N/A   Clear
12:00 PM 86.0 °F - 51.8 °F 31% 29.92 in - WNW 8.1 mph - N/A   Clear
1:00 PM 89.6 °F - 50.0 °F 26% 29.92 in - West 6.9 mph - N/A   Clear
2:00 PM 90 °F - 53 °F 19% 29.86 in 6 mi NW 4.6 mph - -  
2:00 PM 89.6 °F 87.3 °F 53.6 °F 29% 29.89 in - NW 4.6 mph - N/A   Clear
3:00 PM 89.6 °F 87.3 °F 53.6 °F 29% 29.89 in - WSW 8.1 mph - N/A   Clear
4:00 PM 89.6 °F - 48.2 °F 24% 29.89 in - NW 8.1 mph - N/A   Clear
5:00 PM 86.0 °F - 50.0 °F 29% 29.89 in - NW 8.1 mph - N/A   Clear
6:00 PM 82.4 °F - 50.0 °F 32% 29.89 in - NNW 8.1 mph - N/A   Clear
7:00 PM 71.6 °F - 51.8 °F 50% 29.92 in - NW 8.1 mph - N/A   Clear
8:00 PM 73 °F - 52 °F 37% 29.90 in 6 mi NW 8.1 mph - -  
8:00 PM 80.6 °F - 51.8 °F 37% 29.92 in - NW 8.1 mph - N/A   Clear
9:00 PM 71.6 °F - 51.8 °F 50% 29.92 in - NW 8.1 mph - N/A   Clear
10:00 PM 69.8 °F - 51.8 °F 53% 29.92 in - West 6.9 mph - N/A   Clear
11:00 PM 68.0 °F - 51.8 °F 56% 29.92 in - West 9.2 mph - N/A   Clear